Torna al catalogo

STARLINK-37688

AttivoComunicazioniVLEO
NORAD 69372·PAYLOAD·🇺🇸 United States

Lanciato Jun 4, 2026 da Cape Canaveral Space Force Station

Loading…

Prossimi Passaggi (prossime 24 ore)

TLE

AggiornatoSource: CelesTrak SupGP

Epoca: Sep 14, 2026, 21:33 UTC

1 69372C 26123V   26257.89840278 -.00027062  00000+0 -79922-3 0  2576
2 69372  53.1578 167.7660 0001234  91.0978 203.7560 15.34416703    13

Traccia STARLINK-37688 in tempo reale con AllMySat

Download on the App Store